| time (UTC) | temp F | wind direction | speed MPH | gust MPH | rain 1hr in | rain 24hr in | rain mn in | humidity % | barometer mb |
| 20260906111552 | 72 | 312 | 2.0 | 5.0 | 0.00 | 0.04 | 0.00 | 81 | 1010.6 |
| 20260906110046 | 72 | 338 | 1.0 | 4.0 | 0.00 | 0.04 | 0.00 | 81 | 1010.3 |
| 20260906104546 | 72 | 347 | 3.0 | 8.0 | 0.00 | 0.04 | 0.00 | 81 | 1010.2 |
| 20260906103049 | 72 | 298 | 3.0 | 7.0 | 0.00 | 0.04 | 0.00 | 81 | 1010.1 |
| 20260906101543 | 72 | 330 | 0.0 | 6.0 | 0.00 | 0.04 | 0.00 | 82 | 1010.1 |
| 20260906100050 | 72 | 331 | 1.0 | 4.0 | 0.00 | 0.04 | 0.00 | 82 | 1009.9 |
| 20260906094548 | 72 | 333 | 2.0 | 5.0 | 0.00 | 0.04 | 0.00 | 82 | 1009.6 |
| 20260906093041 | 72 | 326 | 1.0 | 3.0 | 0.00 | 0.04 | 0.00 | 82 | 1009.4 |
| 20260906091539 | 72 | 326 | 0.0 | 0.0 | 0.00 | 0.04 | 0.00 | 82 | 1009.2 |
| 20260906090037 | 72 | 326 | 1.0 | 3.0 | 0.00 | 0.04 | 0.00 | 82 | 1009.3 |
| 20260906084536 | 71 | 326 | 0.0 | 0.0 | 0.00 | 0.04 | 0.00 | 82 | 1009.1 |
| 20260906083035 | 71 | 326 | 0.0 | 3.0 | 0.00 | 0.04 | 0.00 | 82 | 1009.1 |
| 20260906081533 | 70 | 326 | 1.0 | 3.0 | 0.00 | 0.04 | 0.00 | 81 | 1009.1 |
| 20260906080033 | 70 | 326 | 0.0 | 0.0 | 0.00 | 0.04 | 0.00 | 80 | 1008.6 |
| 20260906074532 | 70 | 326 | 0.0 | 0.0 | 0.00 | 0.04 | 0.00 | 80 | 1008.6 |
| 20260906073031 | 71 | 326 | 0.0 | 0.0 | 0.00 | 0.04 | 0.00 | 80 | 1008.5 |
| 20260906071528 | 71 | 326 | 0.0 | 0.0 | 0.00 | 0.04 | 0.00 | 80 | 1008.5 |
| 20260906070026 | 71 | 326 | 0.0 | 0.0 | 0.00 | 0.04 | 0.00 | 80 | 1008.6 |
| 20260906064524 | 71 | 326 | 0.0 | 0.0 | 0.00 | 0.04 | 0.00 | 80 | 1008.6 |
| 20260906063029 | 71 | 326 | 0.0 | 0.0 | 0.00 | 0.04 | 0.00 | 80 | 1008.9 |
| 20260906061520 | 72 | 326 | 0.0 | 0.0 | 0.00 | 0.04 | 0.00 | 80 | 1008.9 |
| 20260906060021 | 72 | 326 | 0.0 | 0.0 | 0.00 | 0.04 | 0.00 | 80 | 1009.1 |
| 20260906054520 | 72 | 326 | 0.0 | 0.0 | 0.00 | 0.04 | 0.00 | 78 | 1009.2 |
| 20260906053014 | 72 | 326 | 0.0 | 0.0 | 0.00 | 0.04 | 0.00 | 78 | 1009.3 |
| 20260906051512 | 73 | 326 | 0.0 | 0.0 | 0.00 | 0.04 | 0.00 | 78 | 1009.6 |
| 20260906050011 | 73 | 326 | 0.0 | 0.0 | 0.00 | 0.04 | 0.00 | 77 | 1009.6 |
| 20260906044508 | 73 | 326 | 0.0 | 0.0 | 0.00 | 0.04 | 0.00 | 75 | 1009.8 |
| 20260906043007 | 73 | 326 | 0.0 | 0.0 | 0.00 | 0.04 | 0.00 | 74 | 1009.8 |
| 20260906041505 | 73 | 326 | 0.0 | 1.0 | 0.00 | 0.04 | 0.00 | 74 | 1009.9 |
| 20260906040004 | 73 | 326 | 0.0 | 1.0 | 0.00 | 0.04 | 0.04 | 74 | 1009.9 |
| 20260906034607 | 73 | 326 | 0.0 | 2.0 | 0.00 | 0.04 | 0.04 | 74 | 1010.0 |
| 20260906033003 | 73 | 326 | 0.0 | 0.0 | 0.00 | 0.04 | 0.04 | 74 | 1010.1 |
| 20260906031506 | 73 | 326 | 0.0 | 0.0 | 0.00 | 0.04 | 0.04 | 74 | 1010.0 |
| 20260906030004 | 73 | 326 | 0.0 | 1.0 | 0.00 | 0.04 | 0.04 | 74 | 1009.8 |
| 20260906024502 | 73 | 326 | 0.0 | 3.0 | 0.00 | 0.04 | 0.04 | 73 | 1009.8 |
| 20260906023104 | 74 | 326 | 0.0 | 3.0 | 0.00 | 0.04 | 0.04 | 73 | 1010.0 |
| 20260906021604 | 74 | 326 | 0.0 | 0.0 | 0.00 | 0.04 | 0.04 | 73 | 1009.7 |
| 20260906020058 | 74 | 326 | 0.0 | 0.0 | 0.00 | 0.04 | 0.04 | 73 | 1009.5 |
| 20260906014658 | 74 | 326 | 0.0 | 0.0 | 0.00 | 0.04 | 0.04 | 73 | 1009.6 |
| 20260906013104 | 74 | 326 | 0.0 | 0.0 | 0.00 | 0.04 | 0.04 | 71 | 1009.5 |
| 20260906011556 | 75 | 326 | 0.0 | 0.0 | 0.00 | 0.04 | 0.04 | 71 | 1009.3 |
| 20260906010056 | 75 | 326 | 0.0 | 0.0 | 0.00 | 0.04 | 0.04 | 70 | 1009.3 |
| 20260906004555 | 75 | 326 | 0.0 | 0.0 | 0.00 | 0.04 | 0.04 | 70 | 1009.2 |
| 20260906003055 | 76 | 326 | 0.0 | 0.0 | 0.00 | 0.04 | 0.04 | 70 | 1009.2 |
| 20260906001553 | 76 | 326 | 0.0 | 0.0 | 0.00 | 0.04 | 0.04 | 70 | 1009.0 |
| 20260906000100 | 76 | 326 | 0.0 | 2.0 | 0.00 | 0.04 | 0.04 | 69 | 1008.6 |
| 20260905234559 | 76 | 326 | 1.0 | 2.0 | 0.00 | 0.04 | 0.04 | 68 | 1008.6 |
| 20260905233054 | 77 | 326 | 0.0 | 2.0 | 0.00 | 0.04 | 0.04 | 68 | 1008.4 |
| 20260905231552 | 77 | 326 | 0.0 | 3.0 | 0.00 | 0.04 | 0.04 | 68 | 1008.2 |
| 20260905230052 | 77 | 326 | 1.0 | 3.0 | 0.00 | 0.04 | 0.04 | 68 | 1007.6 |
| 20260905224551 | 77 | 326 | 0.0 | 2.0 | 0.00 | 0.04 | 0.04 | 69 | 1007.2 |
| 20260905223051 | 76 | 326 | 0.0 | 2.0 | 0.00 | 0.04 | 0.04 | 68 | 1007.5 |
| 20260905221550 | 76 | 326 | 1.0 | 3.0 | 0.01 | 0.04 | 0.04 | 69 | 1007.9 |
| 20260905220050 | 76 | 326 | 0.0 | 2.0 | 0.02 | 0.04 | 0.04 | 68 | 1008.2 |
| 20260905214552 | 76 | 326 | 0.0 | 2.0 | 0.04 | 0.04 | 0.04 | 68 | 1008.0 |
| 20260905213058 | 77 | 333 | 2.0 | 4.0 | 0.04 | 0.04 | 0.04 | 67 | 1007.8 |
| 20260905211604 | 78 | 331 | 0.0 | 3.0 | 0.03 | 0.03 | 0.03 | 65 | 1007.6 |
| 20260905210059 | 80 | 331 | 1.0 | 5.0 | 0.02 | 0.02 | 0.02 | 60 | 1007.9 |
| 20260905204551 | 81 | 355 | 2.0 | 6.0 | 0.00 | 0.00 | 0.00 | 56 | 1007.8 |
| 20260905203048 | 82 | 306 | 2.0 | 7.0 | 0.00 | 0.00 | 0.00 | 54 | 1007.9 |
| 20260905201552 | 83 | 323 | 4.0 | 15.0 | 0.00 | 0.00 | 0.00 | 53 | 1007.8 |
| 20260905200052 | 85 | 338 | 5.0 | 18.0 | 0.00 | 0.00 | 0.00 | 51 | 1007.6 |
| 20260905194546 | 92 | 302 | 12.0 | 23.0 | 0.00 | 0.00 | 0.00 | 43 | 1007.7 |
| 20260905193044 | 96 | 257 | 1.0 | 6.0 | 0.00 | 0.00 | 0.00 | 36 | 1007.2 |
| 20260905191545 | 97 | 290 | 2.0 | 5.0 | 0.00 | 0.00 | 0.00 | 35 | 1007.0 |
| 20260905190042 | 98 | 263 | 2.0 | 7.0 | 0.00 | 0.00 | 0.00 | 33 | 1007.0 |
| 20260905184540 | 99 | 166 | 1.0 | 6.0 | 0.00 | 0.00 | 0.00 | 31 | 1007.0 |
| 20260905183037 | 98 | 299 | 2.0 | 5.0 | 0.00 | 0.00 | 0.00 | 33 | 1007.3 |
| 20260905181533 | 97 | 300 | 3.0 | 5.0 | 0.00 | 0.00 | 0.00 | 36 | 1007.6 |
| 20260905180031 | 96 | 263 | 3.0 | 7.0 | 0.00 | 0.00 | 0.00 | 34 | 1008.1 |
| 20260905174530 | 97 | 318 | 5.0 | 10.0 | 0.00 | 0.00 | 0.00 | 35 | 1008.4 |
| 20260905173049 | 96 | 296 | 4.0 | 10.0 | 0.00 | 0.00 | 0.00 | 38 | 1008.8 |
| 20260905171523 | 96 | 207 | 2.0 | 6.0 | 0.00 | 0.00 | 0.00 | 38 | 1009.0 |
| 20260905170019 | 96 | 297 | 3.0 | 8.0 | 0.00 | 0.00 | 0.00 | 41 | 1009.4 |
| 20260905164519 | 95 | 238 | 3.0 | 7.0 | 0.00 | 0.00 | 0.00 | 43 | 1009.5 |
| 20260905163015 | 94 | 196 | 2.0 | 4.0 | 0.00 | 0.00 | 0.00 | 42 | 1009.6 |
| 20260905161512 | 93 | 321 | 3.0 | 10.0 | 0.00 | 0.00 | 0.00 | 44 | 1009.9 |
| 20260905160010 | 92 | 212 | 1.0 | 6.0 | 0.00 | 0.00 | 0.00 | 47 | 1010.1 |
| 20260905154507 | 92 | 190 | 2.0 | 6.0 | 0.00 | 0.00 | 0.00 | 47 | 1010.3 |
| 20260905153004 | 91 | 176 | 2.0 | 6.0 | 0.00 | 0.00 | 0.00 | 50 | 1010.5 |
| 20260905151502 | 90 | 209 | 3.0 | 8.0 | 0.00 | 0.00 | 0.00 | 50 | 1010.5 |
| 20260905150059 | 88 | 257 | 2.0 | 7.0 | 0.00 | 0.00 | 0.00 | 54 | 1010.6 |
| 20260905144559 | 87 | 167 | 3.0 | 7.0 | 0.00 | 0.00 | 0.00 | 55 | 1010.6 |
| 20260905143055 | 87 | 171 | 3.0 | 7.0 | 0.00 | 0.00 | 0.00 | 55 | 1010.6 |
| 20260905141552 | 86 | 214 | 1.0 | 5.0 | 0.00 | 0.00 | 0.00 | 58 | 1010.6 |
| 20260905140049 | 84 | 211 | 1.0 | 7.0 | 0.00 | 0.00 | 0.00 | 60 | 1010.5 |
| 20260905134556 | 83 | 187 | 3.0 | 8.0 | 0.00 | 0.00 | 0.00 | 61 | 1010.4 |
| 20260905133048 | 82 | 202 | 3.0 | 8.0 | 0.00 | 0.00 | 0.00 | 62 | 1010.6 |
| 20260905131539 | 81 | 186 | 3.0 | 8.0 | 0.00 | 0.00 | 0.00 | 62 | 1010.6 |
| 20260905130037 | 80 | 167 | 3.0 | 7.0 | 0.00 | 0.00 | 0.00 | 63 | 1010.7 |
| 20260905124540 | 79 | 194 | 3.0 | 7.0 | 0.00 | 0.00 | 0.00 | 64 | 1010.7 |
| 20260905123032 | 78 | 163 | 2.0 | 5.0 | 0.00 | 0.00 | 0.00 | 65 | 1010.8 |
| 20260905121529 | 77 | 183 | 3.0 | 6.0 | 0.00 | 0.00 | 0.00 | 66 | 1010.6 |
| 20260905120027 | 76 | 156 | 3.0 | 5.0 | 0.00 | 0.00 | 0.00 | 68 | 1010.6 |
| 20260905114528 | 75 | 142 | 1.0 | 4.0 | 0.00 | 0.00 | 0.00 | 70 | 1010.5 |
| 20260905113025 | 74 | 142 | 0.0 | 1.0 | 0.00 | 0.00 | 0.00 | 70 | 1010.3 |